Location: South Range
(44.4886°N, 65.7879°W)
Time: 04:44:57
(UTC-03:00)

Iridium 56 - Visible Passes

Search period start: 28 June 2016 00:00
Search period end: 08 July 2016 00:00
Orbit: 776 x 779 km, 86.4° (Epoch: 27 June)

Date Brightness Start Highest point End Pass type
(mag) Time Alt. Az. Time Alt. Az. Time Alt. Az.
28 Jun 8.2 02:09:09 10° NE 02:10:28 11° ENE 02:11:47 10° E visible
28 Jun 5.6 03:46:47 10° N 03:52:02 84° E 03:56:47 13° S visible
29 Jun 6.4 03:13:24 10° N 03:18:27 47° E 03:22:59 12° SSE visible
29 Jun 6.9 04:54:53 10° NNW 04:58:49 22° W 05:02:44 10° SW visible
30 Jun 7.3 02:40:18 10° NNE 02:44:43 27° ENE 02:49:07 10° SE visible
30 Jun 6.2 04:20:44 10° NNW 04:25:32 38° W 04:29:40 13° SSW visible
01 Jul 7.9 02:07:45 10° NE 02:10:51 16° ENE 02:13:57 10° ESE visible
01 Jul 5.5 03:46:56 10° N 03:52:08 69° W 03:55:55 19° S visible
02 Jul 5.8 03:13:24 10° N 03:18:37 67° E 03:22:11 20° SSE visible
02 Jul 7.3 04:55:42 10° NW 04:58:42 16° WNW 05:01:44 10° WSW visible
03 Jul 6.7 02:40:07 10° NNE 02:44:58 37° E 02:48:28 17° SE visible
03 Jul 6.7 04:21:10 10° NNW 04:25:30 27° W 04:28:55 14° SW visible
04 Jul 7.5 02:07:11 10° NNE 02:11:11 22° ENE 02:14:46 12° ESE visible
04 Jul 5.9 03:47:10 10° NNW 03:52:11 48° W 03:55:12 23° SSW visible
05 Jul 8.0 01:35:07 10° NE 01:37:17 12° ENE 01:39:25 10° E visible
05 Jul 5.5 03:13:29 10° N 03:18:44 86° W 03:21:31 29° S visible
05 Jul 7.6 04:57:21 10° WNW 04:58:34 11° WNW 04:59:47 10° W visible
06 Jul 6.1 02:40:03 10° N 02:45:10 53° E 02:47:50 27° SSE visible
06 Jul 7.1 04:21:46 10° NW 04:25:27 20° W 04:28:18 13° WSW visible
07 Jul 7.0 02:06:52 10° NNE 02:11:28 30° ENE 02:14:10 19° SE visible
07 Jul 6.4 03:47:31 10° NNW 03:52:11 34° W 03:54:37 23° SW visible
